[TLELIST] Archives

 

[TLELIST] Current TLEs

June 3rd 2026 PDT

0 HST 1 20580U 90037B 26153.34296606 .00005773 00000-0 18209-3 0 9992 2 20580 28.4711 182.0162 0001701 354.7953 5.2625 15.30586461786296 0 ISS (ZARYA) 1 25544U 98067A 26154.06458266 .00009911 00000-0 18404-3 0 9995 2 25544 51.6331 10.0114 0007109 126.8176 233.3466 15.49574260569567 0 CXO 1 25867U 99040B 26156.15341265 .00000679 00000-0 00000-0 0 9999 2 25867 55.9514 117.0331 7855938 310.2940 0.1967 0.37796078 17276 ...Continue Reading

[TLELIST] Current TLEs

June 2nd 2026 PDT

0 HST 1 20580U 90037B 26152.49532724 .00006011 00000-0 18996-3 0 9990 2 20580 28.4714 187.8079 0001616 344.4856 15.5690 15.30576223786169 0 ISS (ZARYA) 1 25544U 98067A 26153.09720835 .00009906 00000-0 18407-3 0 9998 2 25544 51.6331 14.8020 0007169 124.3735 235.7933 15.49554083569415 0 CXO 1 25867U 99040B 26153.50844987 .00000595 00000-0 00000-0 0 9991 2 25867 55.9180 117.0902 7859056 310.3424 0.0689 0.37796441 17265 ...Continue Reading

[TLELIST] Current TLEs

June 1st 2026 PDT

0 HST 1 20580U 90037B 26152.23451408 .00005847 00000-0 18460-3 0 9993 2 20580 28.4714 189.5900 0001582 341.3793 18.6745 15.30573156786122 0 ISS (ZARYA) 1 25544U 98067A 26152.12982146 .00009579 00000-0 17840-3 0 9992 2 25544 51.6333 19.5912 0007212 120.4663 239.7039 15.49534343569266 0 CXO 1 25867U 99040B 26153.50844987 .00000595 00000-0 00000-0 0 9991 2 25867 55.9180 117.0902 7859056 310.3424 0.0689 0.37796441 17265 ...Continue Reading

[TLELIST] Current TLEs

May 31st 2026 PDT

0 HST 1 20580U 90037B 26151.19125608 .00007916 00000-0 25254-3 0 9995 2 20580 28.4718 196.7185 0001522 329.3794 30.6713 15.30562779785961 0 ISS (ZARYA) 1 25544U 98067A 26151.16242250 .00012606 00000-0 23226-3 0 9990 2 25544 51.6337 24.3812 0007232 116.8819 243.2910 15.49515140569113 0 CXO 1 25867U 99040B 26153.50844987 .00000595 00000-0 00000-0 0 9991 2 25867 55.9180 117.0902 7859056 310.3424 0.0689 0.37796441 17265 ...Continue Reading

[TLELIST] Current TLEs

May 30th 2026 PDT

0 HST 1 20580U 90037B 26149.56114721 .00007052 00000-0 22436-3 0 9997 2 20580 28.4725 207.8555 0001399 307.2150 52.8318 15.30538392785711 0 ISS (ZARYA) 1 25544U 98067A 26150.13051462 .00013825 00000-0 25414-3 0 9994 2 25544 51.6337 29.4904 0007252 113.3793 246.7959 15.49488485568959 0 CXO 1 25867U 99040B 26150.86411335 .00000496 00000-0 00000-0 0 9994 2 25867 55.8837 117.1443 7862481 310.3837 0.0320 0.37800688 17258 ...Continue Reading

[TLELIST] Current TLEs

May 30th 2026 PDT

0 HST 1 20580U 90037B 26149.56114721 .00007052 00000-0 22436-3 0 9997 2 20580 28.4725 207.8555 0001399 307.2150 52.8318 15.30538392785711 0 ISS (ZARYA) 1 25544U 98067A 26150.13051462 .00013825 00000-0 25414-3 0 9994 2 25544 51.6337 29.4904 0007252 113.3793 246.7959 15.49488485568959 0 CXO 1 25867U 99040B 26150.86411335 .00000496 00000-0 00000-0 0 9994 2 25867 55.8837 117.1443 7862481 310.3837 0.0320 0.37800688 17258 ...Continue Reading

[TLELIST] Current TLEs

May 29th 2026 PDT

0 HST 1 20580U 90037B 26148.51786479 .00007286 00000-0 23216-3 0 9992 2 20580 28.4729 214.9832 0001361 293.2319 66.8133 15.30523775785553 0 ISS (ZARYA) 1 25544U 98067A 26148.77610718 .00012346 00000-0 22817-3 0 9997 2 25544 51.6335 36.1959 0007359 108.4856 251.6933 15.49449908568746 0 CXO 1 25867U 99040B 26150.86411335 .00000496 00000-0 00000-0 0 9994 2 25867 55.8837 117.1443 7862481 310.3837 0.0320 0.37800688 17258 ...Continue Reading

[TLELIST] Current TLEs

May 28th 2026 PDT

0 HST 1 20580U 90037B 26148.25704248 .00007128 00000-0 22699-3 0 9996 2 20580 28.4729 216.7651 0001346 289.7215 70.3236 15.30520241785515 0 ISS (ZARYA) 1 25544U 98067A 26148.13113954 .00011691 00000-0 21663-3 0 9997 2 25544 51.6335 39.3887 0007375 106.1024 254.0777 15.49434162568649 0 CXO 1 25867U 99040B 26150.86411335 .00000496 00000-0 00000-0 0 9994 2 25867 55.8837 117.1443 7862481 310.3837 0.0320 0.37800688 17258 ...Continue Reading

[TLELIST] Current TLEs

May 27th 2026 PDT

0 HST 1 20580U 90037B 26147.27895352 .00007213 00000-0 22988-3 0 9990 2 20580 28.4731 223.4468 0001309 274.1121 85.9326 15.30507738785363 0 ISS (ZARYA) 1 25544U 98067A 26147.16367648 .00012541 00000-0 23194-3 0 9996 2 25544 51.6335 44.1780 0007391 102.4616 257.7200 15.49411560568490 0 CXO 1 25867U 99040B 26148.21998181 .00000426 00000-0 00000-0 0 9992 2 25867 55.8621 117.1917 7866111 310.4222 0.0280 0.37805843 17240 ...Continue Reading

[TLELIST] Current TLEs

May 26th 2026 PDT

0 HST 1 20580U 90037B 26146.30085647 .00006627 00000-0 21072-3 0 9992 2 20580 28.4732 230.1289 0001285 261.2187 98.8263 15.30494849785217 0 ISS (ZARYA) 1 25544U 98067A 26146.19619863 .00012013 00000-0 22272-3 0 9997 2 25544 51.6332 48.9673 0007421 99.1432 261.0396 15.49386458568347 0 CXO 1 25867U 99040B 26148.21998181 .00000426 00000-0 00000-0 0 9992 2 25867 55.8621 117.1917 7866111 310.4222 0.0280 0.37805843 17240 ...Continue Reading
  • This mailing list is a public mailing list - anyone may join or leave, at any time.
  • This mailing list is announce-only.

International Space Station (ISS) / Hubble Space Telescope (HST) / Chandra X-Ray Observatory Orbital Data via EMAIL

Privacy Policy:

Private list